Terug naar catalogus

CAPELLA-18

ACADIA

ActiefWetenschapSSO
NORAD 67385·PAYLOAD·🇺🇸 United States

Gelanceerd Jan 11, 2026 vanaf Vandenberg Space Force Base

Loading…

Volgende Passages (komende 24 uur)

TLE

VersSource: Space-Track

Epoch: Sep 14, 2026, 10:59 UTC

1 67385U 26004Y   26257.45806017  .00003206  00000-0  36702-3 0  9996
2 67385  97.8068 254.3930 0001469  96.0222 264.1161 14.86655524 36541

Volg CAPELLA-18 in realtime met AllMySat

Download on the App Store